Погода в Панине

Россия / Нижегородская область     55°45′15″N   42°55′34″E
темп.,
°C
ветер,
м/с
пор.,
м/с
влажн.,
%
обл.,
%
осадки,
мм/ч
давл.,
гПа
погр.,
м
22 мая, вс
вс2200:00+3ссв237166 0.0 100753
03:000св228631 0.0 100724
06:00+3ссв35745 0.0 1005225
09:00+7ссв45555 0.0 10041357
12:00+9ссв444594 0.0 10031917
15:00+9ссв554998 0.0 10031822
18:00+7ссв465936 0.0 10031368
21:00+1с367956 0.0 1003112
23 мая, пн
пн2300:000ссз248563 0.0 100285
03:00−1сз36935 0.0 1002124
06:00+1сз367665 0.0 1002324
09:00+5зсз5668100 0.1 10011206
12:00+6зсз5773100 0.3 10001192
15:00+7зсз5870100 0.7 10001203
18:00+5зсз31092100 0.7 10011031
21:00+2зсз2992100 0.8 1001297
24 мая, вт
вт2400:00+2з2890100 0.0 1001226
03:00+2з31193100 0.4 1001546
06:00+2з3996100 0.9 1002528
09:00+3з2599100 1.4 1003458
12:00+3сз2399100 0.9 1006317
15:00+4сз239259 1.2 1007436
18:00+6ссз237699 0.4 1008747
21:00+1з11897 0.4 101010
25 мая, ср
ср2500:000сз11885 0.0 101010
03:00−1ссз119058 0.0 101110
06:00+2ссз128659 0.0 1012158
09:00+7ссз337278 0.1 10121012
12:00+8ссз446699 0.9 10121369
15:00+9ссз445660 1.2 10121498
18:00+8зсз35635 0.0 1013849
21:00+3зсз328211 0.0 101432
26 мая, чт
чт2600:00+2сз369849 0.0 1014128
03:00+2сз369632 0.0 1015109
06:00+5сз248686 0.0 1015214
09:00+10сз356865 0.0 10141054
12:00+11зсз3460100 0.1 10131442
15:00+12з125565 0.1 10121030
18:00+13вюв346112 0.0 1010377
21:00+7юв3688100 0.0 100995